MTG-S1

Last updated on Mon Sep 21 2026 00:02:41 GMT+0000 (Coordinated Universal Time)

1 64723U 25143A 26263.56227500 -.00000010 00000+0 00000+0 0 9993 2 64723 0.6195 341.6990 0003600 252.6910 327.2262 1.00272703 4371
UTC large
Height (km)
Speed (km/s)
/
Latitude / Longitude
Inclination (degrees)
Orbital Period (minutes)
Azimuth
Elevation
Range (km)
Doppler Factor

Next 0 passes for location: London (51.5072 / 0.1276)

No passes found over London.
MTG-S1